Indianapolis, IN

7:52 PM EDT on May 26, 2017 (GMT -0400)
Indianapolis International

Weather History for KIND - June, 2013

Change the Weather History Date:

Sunday, June 9, 2013

  Actual Average Record
Temperature  
Mean Temperature 72 °F 70 °F  
Max Temperature 80 °F 80 °F 94 °F (1914)
Min Temperature 64 °F 60 °F 41 °F (1885)
Degree Days  
Heating Degree Days 0 1  
Month to date heating degree days 9 11  
Since 1 June heating degree days 9 11  
Since 1 July heating degree days 5405 5373  
Cooling Degree Days 7 6  
Month to date cooling degree days 29 48  
Year to date cooling degree days 158 132  
Since 1 June cooling degree days 29 48  
Growing Degree Days 22 (Base 50)    
Moisture  
Dew Point 61 °F    
Average Humidity 66    
Maximum Humidity 87    
Minimum Humidity 45    
Precipitation  
Precipitation 0.11 in 0.14 in 2.11 in (1880)
Month to date precipitation 0.87 1.30  
Year to date precipitation 22.70 18.70  
Snow  
Snow 0.00 in 0.00 in T in (1950)
Month to date snowfall 0.0 0.0  
Since 1 June snowfall 0.0 0.0  
Since 1 July snowfall 34.5 25.9  
Snow Depth 0.00 in    
Sea Level Pressure  
Sea Level Pressure 29.93 in    
Wind  
Wind Speed 7 mph (SSE)    
Max Wind Speed 17 mph    
Max Gust Speed 21 mph    
Visibility 8 miles    
Events Rain , Thunderstorm    
T = Trace of Precipitation, MM = Missing Value Source: NWS Daily Summary

Daily Weather History Graph

Daily Weather History Graph

Search for Another Location

Airport or City:

Trip Planner

Search our weather history database for the weather conditions in past years. The results will help you decide how hot, cold, wet, or windy it might be!

Date:

Astronomy

Jun. 09, 2013 Rise Set
Actual Time 6:16 AM EDT 9:12 PM EDT
Civil Twilight 5:44 AM EDT 9:44 PM EDT
Nautical Twilight 5:03 AM EDT 10:25 PM EDT
Astronomical Twilight 4:16 AM EDT 11:13 PM EDT
Moon 7:12 AM EDT (6/9) 9:58 PM EDT (6/9)
Length of Visible Light 16h 00m
Length of Day
14h 55m
New Moon, 1% of the Moon is Illuminated
Jun 9
New Moon
Jun 16
First Quarter
Jun 23
Full
Jun 30
Last Quarter
Jul 8
New

Hourly Weather History & Observations

Time (EDT) Temp. Heat Index Dew Point Humidity Pressure Visibility Wind Dir Wind Speed Gust Speed Precip Events Conditions
12:54 AM 68.0 °F - 61.0 °F 78% 30.00 in 8.0 mi SE 8.1 mph - N/A   Mostly Cloudy
1:54 AM 68.0 °F - 61.0 °F 78% 30.00 in 8.0 mi ESE 6.9 mph - N/A   Overcast
3:54 AM 66.0 °F - 61.0 °F 84% 29.99 in 7.0 mi ESE 5.8 mph - N/A   Mostly Cloudy
4:54 AM 66.0 °F - 61.0 °F 84% 30.00 in 7.0 mi SE 6.9 mph - N/A   Overcast
5:54 AM 64.9 °F - 61.0 °F 87% 30.00 in 7.0 mi Calm Calm - N/A   Mostly Cloudy
6:54 AM 64.9 °F - 61.0 °F 87% 30.01 in 6.0 mi Calm Calm - N/A   Mostly Cloudy
7:54 AM 66.0 °F - 62.1 °F 87% 30.01 in 6.0 mi SE 5.8 mph - N/A   Mostly Cloudy
8:54 AM 68.0 °F - 62.1 °F 81% 30.01 in 6.0 mi SSE 3.5 mph - N/A   Haze
9:54 AM 72.0 °F - 62.1 °F 71% 30.00 in 9.0 mi SE 3.5 mph - N/A   Mostly Cloudy
10:54 AM 75.9 °F - 60.1 °F 58% 29.99 in 10.0 mi South 5.8 mph - N/A   Mostly Cloudy
11:54 AM 78.1 °F - 57.9 °F 50% 30.00 in 10.0 mi South 13.8 mph - N/A   Mostly Cloudy
12:54 PM 79.0 °F - 57.0 °F 47% 29.98 in 10.0 mi South 6.9 mph - N/A   Mostly Cloudy
1:54 PM 78.1 °F - 55.0 °F 45% 29.94 in 10.0 mi SE 9.2 mph - N/A   Mostly Cloudy
2:54 PM 80.1 °F 80.4 °F 57.0 °F 45% 29.92 in 10.0 mi South 13.8 mph - N/A   Overcast
3:54 PM 78.1 °F - 57.0 °F 48% 29.91 in 10.0 mi South 11.5 mph - N/A   Overcast
4:54 PM 77.0 °F - 55.9 °F 48% 29.88 in 10.0 mi SSE 8.1 mph - N/A   Overcast
5:54 PM 75.9 °F - 59.0 °F 56% 29.89 in 10.0 mi South 15.0 mph - N/A   Overcast
6:54 PM 73.0 °F - 61.0 °F 66% 29.87 in 10.0 mi SSE 8.1 mph - N/A   Overcast
7:54 PM 72.0 °F - 62.1 °F 71% 29.87 in 10.0 mi SSE 9.2 mph - 0.00 in Rain Light Rain
8:54 PM 72.0 °F - 63.0 °F 73% 29.86 in 10.0 mi ESE 4.6 mph - 0.00 in   Overcast
9:54 PM 70.0 °F - 64.0 °F 81% 29.84 in 10.0 mi South 4.6 mph - 0.01 in   Overcast
10:35 PM 69.8 °F - 64.4 °F 83% 29.84 in 2.0 mi Calm Calm - 0.02 in Rain , Thunderstorm Heavy Thunderstorms and Rain
10:47 PM 69.8 °F - 64.4 °F 83% 29.84 in 3.0 mi Calm Calm - 0.10 in Rain , Thunderstorm Light Thunderstorms and Rain
10:54 PM 70.0 °F - 66.0 °F 87% 29.83 in 5.0 mi Calm Calm - 0.10 in Rain , Thunderstorm Light Thunderstorms and Rain
11:04 PM 69.8 °F - 66.2 °F 88% 29.84 in 8.0 mi NNE 3.5 mph - 0.00 in Rain , Thunderstorm Light Thunderstorms and Rain
11:23 PM 69.8 °F - 66.2 °F 88% 29.84 in 8.0 mi SE 4.6 mph - 0.00 in   Overcast
11:54 PM 70.0 °F - 66.9 °F 90% 29.82 in 6.0 mi SSE 4.6 mph - 0.00 in Rain Light Rain